Chatham, MA

7:11 AM EST on February 21, 2018 (GMT -0500)
Chatham Municipal

Weather History for KCQX - March, 2014

Change the Weather History Date:

Tuesday, March 25, 2014

  Actual Average Record
Temperature  
Mean Temperature 28 °F -  
Max Temperature 37 °F 45 °F 60 °F (1987)
Min Temperature 19 °F 33 °F 19 °F (2014)
Degree Days  
Heating Degree Days 37    
Moisture  
Dew Point 11 °F    
Average Humidity 47    
Maximum Humidity 71    
Minimum Humidity 32    
Precipitation  
Precipitation 0.00 in - - ()
Sea Level Pressure  
Sea Level Pressure 30.10 in    
Wind  
Wind Speed 5 mph (SW)    
Max Wind Speed 13 mph    
Max Gust Speed 24 mph    
Visibility 10 miles    
Events      
Averages and records for this station are not official NWS values.
T = Trace of Precipitation, MM = Missing Value Source: NWS Daily Summary

Daily Weather History Graph

Daily Weather History Graph

Search for Another Location

Airport or City:

Trip Planner

Search our weather history database for the weather conditions in past years. The results will help you decide how hot, cold, wet, or windy it might be!

Date:

Astronomy

Mar. 25, 2014 Rise Set
Actual Time 6:34 AM EDT 6:57 PM EDT
Civil Twilight 6:07 AM EDT 7:25 PM EDT
Nautical Twilight 5:34 AM EDT 7:58 PM EDT
Astronomical Twilight 5:00 AM EDT 8:31 PM EDT
Moon 2:58 AM EDT (3/25) 1:20 PM EDT (3/25)
Length of Visible Light 13h 18m
Length of Day
12h 22m
Waning Crescent, 32% of the Moon is Illuminated
Mar 25
Waning Crescent
Mar 30
New
Apr 7
First Quarter
Apr 15
Full
Apr 22
Last Quarter

Hourly Weather History & Observations

Time (EDT) Temp. Windchill Dew Point Humidity Pressure Visibility Wind Dir Wind Speed Gust Speed Precip Events Conditions
12:52 AM 19.9 °F - 8.1 °F 60% 30.15 in 10.0 mi Calm Calm - N/A   Clear
1:52 AM 21.0 °F 16.2 °F 9.0 °F 60% 30.15 in 10.0 mi West 3.5 mph - N/A   Clear
2:52 AM 19.9 °F 14.9 °F 6.1 °F 55% 30.14 in 10.0 mi WNW 3.5 mph - N/A   Clear
3:52 AM 19.9 °F 14.9 °F 6.1 °F 55% 30.15 in 10.0 mi West 3.5 mph - N/A   Clear
4:52 AM 19.9 °F 14.9 °F 8.1 °F 60% 30.15 in 10.0 mi WNW 3.5 mph - N/A   Clear
5:52 AM 19.9 °F 13.4 °F 10.0 °F 65% 30.15 in 10.0 mi WNW 4.6 mph - N/A   Clear
6:52 AM 19.0 °F 12.3 °F 10.9 °F 71% 30.17 in 10.0 mi WNW 4.6 mph - N/A   Clear
7:52 AM 26.1 °F - 12.9 °F 58% 30.17 in 10.0 mi Calm Calm - N/A   Clear
8:52 AM 30.9 °F 26.2 °F 8.1 °F 38% 30.16 in 10.0 mi Variable 4.6 mph - N/A   Clear
9:52 AM 32.0 °F 24.8 °F 6.1 °F 34% 30.15 in 10.0 mi SW 8.1 mph - N/A   Clear
10:52 AM 33.1 °F 24.9 °F 9.0 °F 37% 30.16 in 10.0 mi SW 10.4 mph 18.4 mph N/A   Clear
11:52 AM 34.0 °F 27.2 °F 8.1 °F 34% 30.15 in 10.0 mi SSW 8.1 mph - N/A   Clear
12:52 PM 34.0 °F 25.5 °F 7.0 °F 32% 30.15 in 10.0 mi SSW 11.5 mph 17.3 mph N/A   Clear
1:52 PM 36.0 °F 29.0 °F 10.9 °F 36% 30.14 in 10.0 mi SSW 9.2 mph - N/A   Clear
2:52 PM 37.0 °F 30.4 °F 14.0 °F 39% 30.12 in 10.0 mi SW 9.2 mph 18.4 mph N/A   Clear
3:52 PM 35.1 °F 29.3 °F 10.0 °F 35% 30.09 in 10.0 mi Variable 6.9 mph 17.3 mph N/A   Clear
4:52 PM 34.0 °F 27.2 °F 10.0 °F 37% 30.08 in 10.0 mi South 8.1 mph - N/A   Clear
5:52 PM 33.1 °F 28.7 °F 10.9 °F 40% 30.06 in 10.0 mi South 4.6 mph - N/A   Clear
6:52 PM 32.0 °F - 10.9 °F 42% 30.04 in 10.0 mi Calm Calm - N/A   Clear
7:52 PM 32.0 °F 26.4 °F 10.9 °F 42% 30.02 in 10.0 mi East 5.8 mph - N/A   Clear
8:52 PM 33.1 °F 26.9 °F 12.9 °F 43% 30.03 in 10.0 mi East 6.9 mph - N/A   Mostly Cloudy
9:52 PM 33.1 °F 25.5 °F 15.1 °F 48% 30.00 in 10.0 mi ENE 9.2 mph - N/A   Overcast
10:52 PM 34.0 °F 26.0 °F 19.0 °F 54% 29.95 in 10.0 mi ENE 10.4 mph - N/A   Scattered Clouds
11:52 PM 34.0 °F 25.0 °F 23.0 °F 64% 29.86 in 10.0 mi ENE 12.7 mph 24.2 mph N/A   Mostly Cloudy